Temp
-8 -8 -8 -8 -8 -9 -9 -9 -9 -9 -10 -10 -10 -10 -10 -11 -12 -13 -12 -13 -12 -12 -12 -11 -11 -10 -10 -10 -10 -9 -9 -8 -9 -8 -9 -9 -9 -8 -8 -8 -8 -8 -8 -8 -8
-8 -8 -9 -9 -9 -9 -9 -9 -10 -10 -10 -10 -10 -10 -11 -11 -12 -13 -13 -13 -13 -13 -12 -12 -11 -11 -10 -10 -10 -10 -8 -9 -8 -9 -9 -9 -9 -9 -9 -9 -8 -8 -8 -8 -7
-9 -9 -9 -9 -9 -10 -10 -10 -10 -10 -10 -10 -11 -11 -11 -13 -14 -13 -13 -14 -14 -14 -13 -12 -12 -11 -11 -10 -10 -9 -9 -9 -10 -10 -9 -10 -10 -9 -9 -9 -9 -9 -8 -8 -8
-9 -9 -10 -10 -10 -10 -10 -10 -10 -10 -11 -11 -11 -12 -12 -14 -14 -14 -14 -14 -13 -14 -14 -13 -12 -12 -11 -11 -10 -10 -10 -10 -10 -10 -11 -10 -10 -10 -9 -9 -9 -9 -9 -9 -9
-9 -10 -10 -10 -11 -11 -11 -11 -11 -11 -11 -12 -12 -13 -14 -15 -15 -14 -14 -14 -14 -14 -14 -14 -13 -12 -12 -11 -10 -10 -10 -10 -10 -10 -10 -10 -11 -11 -10 -9 -9 -9 -9 -9 -9
-10 -10 -10 -11 -11 -11 -11 -11 -11 -11 -12 -13 -13 -14 -15 -15 -15 -15 -15 -15 -15 -15 -15 -14 -13 -13 -13 -12 -11 -11 -11 -11 -11 -10 -10 -11 -11 -11 -11 -10 -9 -9 -10 -9 -9
-10 -10 -11 -11 -12 -12 -11 -11 -12 -12 -13 -14 -14 -15 -16 -16 -15 -15 -16 -16 -16 -16 -16 -16 -15 -14 -14 -13 -12 -12 -11 -11 -11 -11 -10 -10 -11 -11 -11 -10 -10 -10 -9 -9 -8
-11 -11 -11 -12 -12 -12 -12 -12 -13 -13 -14 -15 -15 -16 -16 -16 -15 -17 -18 -17 -17 -17 -17 -17 -16 -15 -15 -14 -14 -13 -13 -12 -11 -11 -11 -10 -10 -10 -11 -11 -10 -10 -10 -10 -9
-11 -11 -12 -12 -12 -12 -13 -13 -14 -15 -15 -17 -17 -17 -16 -16 -16 -16 -17 -18 -18 -18 -18 -17 -17 -16 -15 -15 -14 -13 -12 -11 -11 -11 -11 -11 -10 -10 -10 -10 -10 -10 -11 -11 -10
-11 -12 -12 -12 -13 -13 -13 -15 -15 -17 -18 -18 -17 -17 -17 -17 -16 -17 -17 -18 -19 -18 -18 -17 -17 -16 -15 -15 -14 -12 -12 -12 -11 -11 -11 -10 -10 -11 -10 -10 -10 -10 -10 -10 -10
-12 -12 -12 -13 -13 -13 -14 -14 -18 -19 -19 -19 -18 -18 -17 -17 -17 -17 -17 -18 -18 -18 -18 -17 -16 -14 -13 -13 -14 -13 -13 -12 -12 -12 -11 -11 -10 -11 -11 -11 -11 -11 -10 -10 -10
-12 -12 -13 -13 -13 -14 -14 -17 -20 -20 -20 -20 -19 -18 -17 -18 -18 -17 -18 -18 -18 -18 -18 -17 -16 -16 -15 -14 -14 -13 -13 -13 -13 -12 -12 -11 -11 -12 -11 -11 -11 -10 -10 -11 -11
-13 -13 -13 -13 -13 -14 -17 -19 -20 -21 -21 -21 -20 -19 -18 -18 -18 -17 -18 -18 -18 -18 -18 -17 -17 -16 -16 -15 -15 -14 -13 -13 -13 -13 -12 -12 -11 -11 -11 -11 -11 -11 -10 -10 -9
-13 -13 -13 -13 -14 -16 -19 -20 -21 -21 -20 -20 -19 -19 -18 -18 -18 -17 -18 -18 -17 -17 -16 -17 -17 -16 -16 -16 -15 -15 -14 -14 -13 -13 -13 -12 -11 -11 -11 -11 -11 -11 -10 -11 -11
-13 -13 -13 -13 -14 -18 -19 -20 -20 -20 -20 -19 -19 -19 -19 -19 -18 -18 -18 -18 -18 -17 -18 -18 -17 -16 -16 -16 -15 -15 -14 -14 -13 -13 -13 -13 -12 -11 -11 -11 -10 -11 -11 -11 -11
-12 -13 -13 -14 -16 -19 -19 -19 -20 -20 -20 -19 -19 -19 -19 -18 -18 -19 -19 -19 -20 -20 -20 -18 -18 -17 -17 -16 -16 -16 -15 -14 -13 -13 -13 -12 -12 -12 -11 -10 -11 -11 -11 -11 -11
-12 -13 -13 -14 -18 -18 -19 -19 -19 -20 -19 -19 -19 -19 -19 -18 -19 -19 -19 -19 -19 -19 -18 -17 -17 -17 -17 -17 -17 -16 -15 -14 -14 -13 -12 -12 -12 -11 -11 -11 -11 -11 -11 -11 -11
-13 -13 -13 -14 -19 -18 -18 -18 -19 -20 -19 -19 -18 -18 -18 -19 -18 -18 -19 -18 -18 -18 -17 -16 -16 -16 -16 -16 -14 -14 -14 -13 -13 -12 -12 -12 -12 -11 -11 -11 -11 -11 -11 -11 -11
-13 -13 -13 -14 -18 -18 -17 -17 -18 -19 -19 -18 -18 -19 -18 -18 -18 -18 -18 -18 -18 -18 -17 -17 -17 -17 -17 -16 -16 -14 -14 -14 -13 -13 -13 -12 -12 -12 -11 -11 -11 -11 -12 -12 -12
-13 -13 -14 -14 -18 -18 -17 -17 -18 -18 -18 -18 -18 -18 -18 -18 -17 -17 -17 -18 -18 -17 -17 -17 -16 -17 -16 -16 -15 -15 -15 -14 -13 -13 -13 -12 -12 -12 -12 -12 -12 -12 -12 -12 -12
-13 -13 -14 -15 -18 -18 -18 -17 -18 -18 -18 -18 -17 -18 -17 -17 -17 -17 -17 -18 -18 -17 -16 -16 -16 -15 -15 -14 -14 -14 -14 -14 -14 -14 -13 -13 -14 -14 -14 -14 -14 -14 -13 -13 -13
-13 -13 -14 -16 -17 -18 -18 -17 -18 -18 -18 -18 -18 -17 -17 -17 -17 -18 -17 -18 -17 -17 -16 -16 -16 -16 -15 -16 -16 -16 -15 -15 -15 -15 -15 -16 -16 -16 -16 -15 -15 -15 -15 -14 -14
-14 -14 -14 -15 -17 -18 -18 -16 -17 -18 -17 -18 -17 -18 -18 -17 -17 -18 -18 -18 -17 -17 -16 -16 -16 -16 -16 -16 -17 -16 -16 -16 -17 -17 -17 -17 -17 -17 -16 -16 -16 -16 -16 -15 -15
-14 -14 -14 -15 -17 -18 -18 -17 -18 -18 -18 -18 -17 -18 -18 -17 -17 -17 -18 -17 -17 -18 -17 -17 -17 -17 -16 -16 -16 -17 -16 -17 -17 -17 -17 -16 -16 -16 -16 -16 -16 -16 -16 -15 -15
-14 -14 -14 -16 -17 -18 -18 -18 -17 -18 -18 -18 -17 -17 -17 -17 -17 -17 -17 -17 -17 -17 -17 -17 -17 -17 -17 -17 -17 -17 -17 -17 -17 -17 -17 -16 -16 -16 -16 -16 -15 -15 -15 -14 -14
-15 -15 -15 -16 -17 -18 -18 -18 -18 -18 -18 -17 -17 -17 -17 -17 -17 -17 -17 -17 -16 -17 -17 -17 -18 -18 -17 -17 -17 -17 -17 -18 -18 -17 -17 -16 -16 -16 -16 -16 -16 -15 -14 -14 -14
-15 -15 -16 -16 -17 -18 -18 -18 -18 -17 -18 -18 -17 -17 -17 -17 -17 -17 -16 -16 -17 -16 -16 -17 -17 -17 -17 -17 -17 -17 -17 -17 -17 -17 -17 -16 -16 -16 -16 -16 -17 -15 -15 -14 -14
Height
5794 5789 5785 5779 5774 5769 5764 5760 5756 5753 5749 5746 5743 5739 5735 5731 5727 5727 5730 5725 5730 5737 5744 5751 5759 5765 5776 5784 5794 5803 5808 5822 5839 5846 5851 5853 5859 5866 5871 5878 5885 5892 5897 5898 5901
5787 5781 5776 5770 5764 5759 5754 5750 5746 5742 5738 5733 5729 5724 5719 5714 5711 5711 5709 5711 5712 5720 5729 5738 5746 5752 5762 5772 5782 5792 5802 5814 5828 5837 5843 5847 5853 5860 5867 5871 5878 5887 5891 5896 5900
5779 5772 5766 5760 5754 5749 5744 5739 5735 5730 5725 5720 5715 5709 5704 5698 5697 5695 5692 5693 5694 5700 5710 5720 5730 5739 5751 5762 5774 5785 5796 5805 5817 5824 5834 5840 5846 5852 5860 5867 5872 5880 5887 5891 5896
5770 5764 5757 5750 5744 5738 5734 5728 5723 5717 5712 5706 5701 5695 5689 5685 5683 5678 5678 5676 5678 5684 5693 5704 5717 5727 5739 5752 5765 5776 5786 5797 5807 5816 5824 5832 5839 5845 5854 5861 5867 5872 5877 5886 5890
5762 5755 5748 5740 5734 5729 5723 5717 5710 5704 5697 5691 5685 5679 5675 5673 5665 5668 5663 5661 5664 5671 5681 5692 5706 5718 5731 5744 5754 5766 5779 5790 5797 5805 5816 5823 5831 5838 5847 5855 5860 5865 5871 5879 5885
5755 5746 5738 5731 5725 5719 5712 5704 5698 5691 5683 5676 5670 5666 5662 5662 5654 5655 5651 5650 5653 5661 5670 5681 5695 5709 5720 5731 5744 5758 5769 5781 5789 5798 5809 5817 5824 5830 5838 5848 5854 5859 5863 5873 5877
5745 5737 5729 5721 5714 5706 5698 5689 5681 5674 5666 5659 5654 5651 5652 5646 5646 5645 5642 5642 5646 5654 5663 5671 5684 5697 5711 5723 5734 5746 5759 5771 5781 5791 5800 5811 5817 5824 5831 5839 5846 5853 5858 5865 5872
5736 5727 5719 5710 5702 5693 5683 5674 5664 5655 5647 5641 5637 5637 5640 5632 5637 5636 5634 5636 5640 5648 5656 5664 5677 5688 5700 5714 5724 5736 5748 5761 5776 5784 5792 5801 5810 5816 5824 5831 5839 5845 5852 5858 5864
5728 5719 5709 5700 5689 5677 5665 5654 5641 5635 5627 5623 5623 5623 5627 5623 5626 5626 5629 5631 5635 5642 5651 5661 5670 5682 5694 5705 5714 5725 5743 5757 5767 5777 5785 5793 5802 5808 5816 5824 5831 5838 5844 5850 5856
5718 5708 5698 5686 5674 5659 5644 5630 5617 5607 5608 5607 5608 5611 5613 5614 5615 5617 5620 5626 5632 5640 5647 5656 5666 5675 5687 5696 5707 5726 5740 5752 5763 5773 5780 5787 5798 5802 5808 5816 5824 5831 5836 5843 5850
5709 5699 5687 5673 5657 5638 5622 5605 5589 5589 5590 5589 5594 5596 5600 5603 5606 5607 5613 5620 5627 5636 5644 5654 5665 5675 5692 5705 5713 5725 5736 5745 5752 5761 5772 5781 5788 5792 5799 5806 5814 5821 5829 5835 5842
5701 5689 5675 5659 5641 5617 5591 5574 5570 5565 5567 5569 5577 5584 5590 5595 5600 5602 5609 5615 5625 5634 5641 5654 5662 5673 5684 5693 5704 5713 5726 5740 5748 5756 5765 5772 5779 5784 5791 5799 5807 5814 5821 5829 5834
5692 5678 5663 5644 5624 5595 5569 5560 5554 5552 5555 5561 5566 5575 5582 5589 5594 5599 5609 5616 5625 5634 5642 5652 5662 5672 5680 5689 5700 5709 5722 5734 5743 5749 5757 5765 5772 5780 5787 5795 5801 5808 5814 5820 5828
5683 5667 5648 5628 5605 5576 5562 5554 5550 5551 5553 5558 5563 5569 5579 5586 5593 5598 5605 5615 5622 5630 5639 5648 5658 5668 5678 5686 5697 5707 5717 5729 5735 5743 5752 5758 5768 5776 5782 5788 5795 5801 5808 5813 5818
5675 5658 5636 5610 5588 5571 5563 5556 5553 5554 5556 5564 5567 5571 5578 5585 5591 5596 5603 5612 5620 5631 5639 5648 5658 5666 5674 5686 5694 5703 5713 5724 5732 5737 5743 5754 5760 5770 5774 5781 5790 5795 5800 5805 5810
5669 5652 5630 5604 5579 5573 5566 5562 5560 5563 5562 5563 5570 5574 5579 5585 5591 5596 5604 5612 5621 5630 5639 5647 5656 5664 5674 5681 5690 5698 5708 5720 5728 5734 5741 5748 5757 5761 5772 5778 5780 5786 5792 5795 5800
5663 5646 5624 5598 5581 5576 5572 5570 5569 5565 5569 5572 5574 5576 5580 5588 5593 5599 5605 5612 5623 5631 5640 5648 5656 5663 5671 5677 5686 5694 5704 5715 5724 5729 5736 5740 5749 5758 5765 5769 5774 5779 5782 5787 5792
5658 5641 5621 5599 5585 5583 5580 5578 5575 5573 5574 5579 5577 5579 5585 5591 5597 5604 5610 5619 5627 5635 5642 5648 5658 5664 5670 5679 5687 5691 5701 5710 5716 5721 5728 5734 5742 5749 5756 5762 5765 5770 5774 5779 5785
5653 5638 5620 5600 5592 5590 5587 5584 5581 5581 5580 5579 5583 5585 5589 5594 5603 5605 5614 5623 5631 5637 5644 5652 5659 5667 5673 5680 5685 5692 5699 5706 5713 5718 5723 5730 5736 5739 5746 5753 5758 5761 5766 5771 5776
5655 5637 5622 5603 5596 5595 5594 5591 5589 5586 5584 5584 5587 5591 5596 5599 5605 5611 5615 5623 5633 5640 5647 5655 5662 5668 5675 5680 5686 5692 5701 5706 5711 5718 5722 5727 5732 5735 5740 5745 5750 5755 5759 5764 5769
5655 5640 5624 5605 5599 5600 5598 5596 5596 5592 5589 5590 5592 5595 5601 5605 5610 5616 5623 5628 5635 5642 5649 5655 5663 5668 5673 5678 5683 5689 5692 5700 5706 5712 5717 5721 5726 5729 5733 5737 5742 5746 5751 5756 5760
5654 5642 5624 5607 5603 5601 5602 5600 5600 5597 5594 5594 5597 5601 5606 5610 5613 5620 5626 5633 5639 5645 5651 5654 5660 5669 5676 5680 5685 5690 5695 5700 5705 5711 5713 5718 5723 5725 5728 5731 5735 5739 5743 5748 5752
5652 5640 5627 5610 5604 5604 5604 5604 5605 5602 5599 5597 5600 5603 5609 5615 5619 5623 5629 5634 5640 5647 5654 5659 5663 5667 5671 5678 5681 5686 5692 5698 5703 5706 5711 5716 5721 5723 5726 5729 5731 5734 5738 5742 5745
5651 5638 5626 5613 5605 5605 5605 5604 5606 5605 5603 5603 5604 5607 5612 5618 5623 5627 5632 5637 5641 5647 5652 5658 5663 5669 5674 5679 5684 5688 5693 5697 5701 5705 5711 5716 5719 5721 5724 5727 5729 5731 5734 5738 5740
5648 5638 5627 5615 5607 5605 5606 5606 5607 5607 5607 5607 5609 5612 5615 5620 5625 5630 5634 5639 5643 5648 5654 5660 5665 5670 5674 5678 5683 5689 5693 5697 5701 5706 5709 5714 5716 5718 5720 5723 5724 5726 5727 5730 5735
5650 5639 5628 5616 5608 5605 5607 5609 5609 5610 5610 5609 5612 5613 5617 5621 5626 5629 5635 5641 5644 5648 5653 5658 5664 5669 5674 5679 5684 5689 5693 5696 5700 5704 5707 5710 5712 5714 5716 5717 5718 5716 5717 5721 5725
5647 5636 5626 5617 5609 5606 5607 5610 5610 5610 5612 5611 5612 5613 5617 5622 5626 5632 5636 5641 5645 5650 5655 5660 5664 5669 5675 5679 5683 5689 5692 5695 5699 5702 5704 5707 5709 5711 5712 5714 5713 5707 5708 5711 5716
Wind_Speed
36 35 35 35 38 37 38 39 39 39 35 39 39 41 48 53 54 46 44 51 53 56 56 54 59 63 64 65 65 63 64 59 59 53 52 52 53 53 46 42 39 33 26 30 22
38 39 39 38 38 38 39 38 40 38 36 40 40 39 45 51 50 41 46 51 58 61 61 59 60 65 65 66 67 66 65 59 58 57 55 53 51 52 50 44 41 36 35 30 25
42 42 40 39 39 37 36 37 36 37 41 42 43 43 46 52 43 40 45 46 51 56 62 65 61 66 66 67 66 66 65 59 59 63 58 54 51 50 51 50 44 40 37 35 32
42 42 42 40 39 36 37 37 37 40 43 43 45 47 50 47 39 41 39 39 46 51 56 65 64 65 68 67 66 67 67 60 61 64 64 56 51 50 51 52 50 48 43 39 34
43 43 43 41 38 38 39 41 44 44 45 46 47 50 48 39 42 36 34 32 39 49 53 59 63 63 65 67 68 68 66 60 60 64 67 60 52 48 49 51 52 49 49 38 38
44 45 44 40 40 42 44 46 48 50 53 50 49 51 43 30 39 33 31 28 35 47 51 55 60 62 63 67 69 67 66 61 59 63 65 66 53 50 50 51 50 52 48 47 35
45 46 43 41 44 46 46 48 52 54 56 50 50 48 36 34 30 32 28 24 33 41 47 52 58 62 62 66 67 67 65 62 59 59 65 67 65 51 50 51 50 48 50 51 51
46 46 44 46 47 51 55 58 59 58 54 52 47 38 27 35 25 25 27 23 30 38 46 52 57 62 63 64 65 65 62 62 58 56 62 67 69 60 53 53 50 47 45 43 47
49 49 48 50 54 60 65 67 62 58 55 49 41 36 27 31 23 26 27 25 31 39 46 52 58 60 62 63 63 64 63 62 59 56 59 63 68 66 59 57 53 48 46 43 41
51 52 54 56 61 69 72 70 73 64 51 46 41 35 30 27 24 28 32 31 34 39 47 52 57 61 62 64 65 63 60 58 55 56 57 61 64 65 67 66 56 58 56 49 46
54 55 60 66 71 75 79 78 68 59 50 45 38 31 26 24 21 27 34 34 38 43 46 52 53 55 54 55 57 57 57 57 55 56 55 58 63 65 66 68 64 56 46 53 53
58 62 69 72 77 85 85 71 54 44 34 31 30 26 23 21 23 35 34 38 38 42 44 49 51 53 54 58 59 58 55 53 52 53 55 57 58 60 62 59 58 59 56 56 49
64 70 72 80 84 89 69 48 32 23 14 15 18 21 22 20 25 32 30 34 35 38 41 45 48 49 50 53 54 55 54 52 51 52 55 56 56 56 58 61 61 60 58 57 55
68 72 79 84 94 70 40 28 15 11 8 2 6 20 20 21 26 27 37 34 37 38 43 42 44 43 44 48 49 48 49 49 50 52 52 54 54 53 53 54 58 60 61 60 58
71 77 83 91 86 42 29 18 11 11 17 15 3 9 18 20 26 22 31 34 33 33 37 36 38 40 42 41 42 42 41 44 49 49 52 52 54 53 55 54 49 52 55 57 58
75 79 85 96 58 30 25 14 14 19 16 20 6 9 14 18 25 27 26 28 31 32 32 33 34 36 35 36 38 37 39 41 44 47 49 50 51 53 51 51 54 53 51 51 51
78 80 88 90 39 28 19 12 9 12 12 22 10 16 15 22 25 25 26 32 32 35 33 33 33 31 32 34 32 35 36 39 42 45 49 51 50 51 51 52 52 52 53 52 51
77 81 90 80 29 27 19 10 10 10 27 10 15 14 20 24 28 27 28 29 33 33 35 36 35 36 36 35 38 41 40 42 46 49 51 51 51 52 51 52 53 53 54 52 51
76 81 90 73 21 20 12 9 4 16 25 18 16 18 24 26 25 30 28 26 28 32 34 33 32 30 30 31 35 36 37 39 43 46 48 48 48 52 53 53 53 53 53 52 51
75 79 88 68 13 13 7 4 3 22 26 12 15 18 25 26 27 28 31 29 25 28 29 27 26 24 25 26 26 26 25 32 34 37 40 42 43 48 47 49 50 50 49 47 47
73 77 85 63 7 9 6 3 1 25 21 8 15 21 23 26 26 27 28 28 27 28 28 28 25 28 28 29 27 27 28 31 30 33 36 41 38 36 36 47 43 41 44 43 45
70 74 83 58 6 4 5 3 13 21 16 8 14 13 23 25 28 27 27 25 26 24 27 30 27 20 20 19 17 16 13 16 15 17 19 20 24 23 21 21 21 26 30 33 36
68 73 80 59 8 4 2 6 8 16 15 7 15 14 26 24 29 31 29 29 27 24 22 22 24 24 24 23 21 18 16 15 12 14 18 8 14 17 17 18 24 28 29 30 33
66 72 78 65 16 4 1 4 6 14 15 11 13 24 26 27 30 32 32 30 30 27 26 25 24 23 21 19 18 18 15 15 13 13 18 10 11 7 13 14 19 29 28 31 33
65 68 74 67 26 7 4 6 7 4 10 5 5 12 26 28 32 32 33 32 32 30 27 29 28 26 24 23 19 16 12 13 12 11 14 10 12 9 10 11 15 24 36 35 34
60 64 71 69 31 6 7 5 6 4 3 4 8 13 27 28 32 33 32 32 32 33 33 34 33 29 26 21 19 16 16 17 18 18 14 10 11 13 9 9 16 25 33 38 39
59 61 68 66 36 4 9 4 3 5 2 2 7 10 32 27 31 31 31 33 33 31 30 30 30 29 24 22 19 17 15 15 14 13 11 8 9 10 12 13 12 10 15 23 25
Wind_Direction
317 315 315 312 306 304 301 297 295 296 293 294 293 291 288 282 280 274 260 250 246 240 235 229 222 221 219 219 220 219 224 219 215 206 206 213 215 220 226 221 218 211 211 211 225
319 315 314 312 309 304 301 295 295 293 294 303 297 293 293 286 281 270 258 259 252 243 236 231 221 219 217 217 218 217 220 221 211 209 212 212 214 217 222 227 224 218 211 208 211
318 316 315 313 310 306 299 294 297 295 293 298 292 292 293 285 285 266 264 258 246 238 230 228 222 218 215 215 217 216 216 217 211 208 210 213 216 214 219 223 230 229 222 222 225
321 320 317 316 313 305 298 294 294 295 298 296 295 291 288 289 285 272 271 258 241 232 225 223 218 218 214 212 215 215 214 213 211 210 203 212 215 217 217 221 225 230 230 221 221
323 322 321 318 313 307 301 294 291 294 300 296 291 287 288 289 279 283 275 257 237 224 218 217 214 215 215 212 211 214 213 212 209 211 208 207 215 217 219 220 222 226 232 232 233
327 326 322 319 314 308 305 302 301 299 298 295 288 286 288 284 282 284 272 251 229 218 212 211 207 209 209 211 212 212 211 211 208 209 209 208 212 215 221 219 221 225 230 227 215
330 326 322 317 313 309 309 307 303 301 296 291 286 287 285 270 278 279 269 242 220 213 209 204 201 204 205 208 210 210 209 210 208 206 211 209 211 214 220 222 220 223 228 234 231
328 326 323 318 317 316 313 310 306 302 293 289 283 282 274 264 278 262 250 235 213 207 203 197 197 199 201 205 209 210 209 207 207 205 209 210 214 212 219 222 221 223 226 229 233
333 330 325 320 319 319 316 313 305 302 288 282 279 275 267 263 262 255 242 219 199 198 196 195 194 197 199 204 207 209 207 205 205 204 206 212 216 220 220 225 225 225 227 228 230
335 331 327 324 323 320 316 311 304 288 282 279 274 272 260 254 257 244 226 204 194 196 196 194 197 196 198 203 207 207 206 206 206 207 205 210 214 219 223 225 225 235 234 235 237
338 333 330 330 325 320 317 311 292 291 285 276 271 263 248 244 247 233 207 201 193 194 197 193 200 199 199 202 205 208 208 206 204 205 207 209 211 218 223 227 229 232 236 235 242
339 335 332 331 328 323 318 303 305 295 286 269 257 246 233 232 221 219 196 199 192 194 193 196 196 198 196 199 203 206 205 204 205 205 207 209 210 214 219 226 232 237 237 240 241
341 337 336 334 332 327 315 320 319 311 302 259 242 226 222 208 217 200 196 187 193 192 193 196 195 198 198 200 203 206 205 202 205 207 207 210 213 214 221 221 228 232 237 241 242
342 342 339 337 336 329 334 341 357 13 31 352 234 209 198 195 213 199 186 187 192 190 186 191 191 197 201 201 205 206 206 202 204 207 211 212 215 216 220 224 226 231 235 239 244
347 345 341 341 342 344 350 6 48 72 96 59 38 177 181 181 205 178 184 181 176 192 182 181 185 194 196 201 204 207 209 206 206 208 212 212 217 218 220 225 229 231 235 239 243
349 346 346 344 344 356 12 38 69 65 19 26 85 148 166 177 177 178 169 174 176 175 177 177 179 190 195 196 199 205 206 205 206 212 216 217 218 222 223 227 229 232 235 238 241
350 348 348 347 353 1 19 70 73 47 54 45 127 145 162 171 167 166 170 166 173 170 171 171 178 184 188 190 190 194 198 201 205 211 217 221 221 224 223 228 231 232 236 239 242
349 350 351 354 355 8 30 48 53 111 25 69 137 146 165 159 165 164 166 169 168 172 174 174 177 181 186 190 197 194 198 201 202 207 214 218 222 224 226 227 232 234 237 239 241
351 353 352 357 359 10 28 40 97 26 15 63 141 160 159 164 163 160 157 165 174 177 179 177 177 183 188 194 188 199 203 203 208 211 215 219 222 228 228 228 231 236 238 241 244
351 354 352 358 1 11 20 41 151 31 16 119 158 168 166 161 160 164 162 161 168 176 172 170 175 174 186 187 193 197 214 213 217 217 223 229 229 232 234 236 237 237 241 244 247
352 354 354 359 349 7 39 58 81 31 57 119 175 160 169 161 161 164 158 154 166 169 170 165 171 175 180 189 191 199 201 204 214 222 225 230 231 240 242 242 243 245 244 244 245
352 353 355 1 335 337 32 125 49 46 65 140 177 165 164 165 159 163 158 157 163 165 174 173 175 192 180 181 178 188 198 200 211 216 219 223 229 242 240 238 228 223 225 232 235
351 353 354 1 335 239 30 160 55 47 75 130 174 169 161 165 161 159 161 164 163 174 184 179 181 182 177 172 174 172 165 159 166 172 168 191 188 209 213 217 218 214 218 220 227
351 352 352 3 358 237 202 136 107 56 57 145 142 158 162 163 164 165 166 165 165 174 178 174 178 181 182 177 177 173 174 172 170 169 185 178 189 203 217 221 223 219 215 221 227
350 351 352 3 357 248 223 133 179 326 49 99 156 166 162 169 170 174 173 170 171 171 176 175 181 181 183 184 184 188 196 192 199 183 202 197 216 222 192 202 223 224 221 216 216
348 350 351 358 357 236 195 123 184 259 25 140 167 157 178 173 176 180 177 176 182 178 179 183 184 191 190 193 193 194 198 189 201 217 226 226 223 227 218 227 262 255 234 230 230
345 349 351 355 359 231 200 205 181 225 287 36 168 168 181 177 182 186 185 186 190 190 187 187 191 197 200 201 204 207 209 214 219 227 216 240 258 258 240 246 297 317 178 208 198